This is the latest recevied weather packets stored in our database for station/object EA2FBA-10. If no packets are shown the sender has not sent any weather packets the latest 10 day(s).
| Time | Temp. | Humidity | Pressure | Rain* | Wind** | Luminosity | Snow |
|---|---|---|---|---|---|---|---|
| 1787837101 | 26.67° C | 46% | 947.6 hPa | - | - | - | - |
| 1787837091 | 26.67° C | 46% | 947.6 hPa | - | - | - | - |
| 1787836201 | 26.11° C | 45% | 947.3 hPa | - | - | - | - |
| 1787836191 | 26.11° C | 45% | 947.3 hPa | - | - | - | - |
| 1787835300 | 26.11° C | 46% | 947.5 hPa | - | - | - | - |
| 1787835291 | 26.11° C | 46% | 947.5 hPa | - | - | - | - |
| 1787834400 | 26.11° C | 47% | 947.7 hPa | - | - | - | - |
| 1787834391 | 26.11° C | 47% | 947.7 hPa | - | - | - | - |
| 1787833500 | 25.56° C | 47% | 948.1 hPa | - | - | - | - |
| 1787833491 | 25.56° C | 47% | 948.1 hPa | - | - | - | - |
| 1787832600 | 26.11° C | 46% | 948.1 hPa | - | - | - | - |
| 1787832591 | 26.11° C | 46% | 948.1 hPa | - | - | - | - |
| 1787831700 | 26.11° C | 45% | 948.1 hPa | - | - | - | - |
| 1787831690 | 26.11° C | 45% | 948.1 hPa | - | - | - | - |
| 1787830800 | 25.56° C | 45% | 948.5 hPa | - | - | - | - |
| 1787830790 | 25.56° C | 45% | 948.5 hPa | - | - | - | - |
| 1787829900 | 25° C | 47% | 948.7 hPa | - | - | - | - |
| 1787829890 | 25° C | 47% | 948.7 hPa | - | - | - | - |
| 1787829000 | 25° C | 46% | 948.1 hPa | - | - | - | - |
| 1787828990 | 25° C | 46% | 948.1 hPa | - | - | - | - |
| 1787828100 | 25.56° C | 46% | 948.3 hPa | - | - | - | - |
| 1787828090 | 25.56° C | 46% | 948.3 hPa | - | - | - | - |
| 1787827190 | 24.44° C | 48% | 948.8 hPa | - | - | - | - |
| 1787826299 | 24.44° C | 47% | 949 hPa | - | - | - | - |
| 1787826290 | 24.44° C | 47% | 949 hPa | - | - | - | - |
* Rain since midnight (hover to see other rain measurements)
** Current wind speed in m/s (hover to see current wind gust speed)